| time (UTC) | temp C | wind direction | speed KPH | gust KPH | rain 1hr cm | rain 24hr cm | rain mn cm | humidity % | barometer mb |
| 20260506051336 | 7 | 316 | 0.0 | 1.6 | 0.18 | 0.10 | 0.10 | 84 | 4264.1 |
| 20260506050834 | 7 | 325 | 0.0 | 0.0 | 0.00 | 0.08 | 0.08 | 85 | 4264.4 |
| 20260506050331 | 7 | 298 | 4.8 | 11.3 | 0.13 | 0.08 | 0.08 | 85 | 4264.3 |
| 20260506044821 | 7 | 317 | 0.0 | 0.0 | 0.00 | 0.05 | 0.05 | 85 | 4264.1 |
| 20260506044320 | 7 | 333 | 0.0 | 0.0 | 0.18 | 0.05 | 0.05 | 85 | 4264.0 |
| 20260506043816 | 7 | 309 | 1.6 | 4.8 | 0.18 | 0.05 | 0.05 | 85 | 4264.0 |
| 20260506043314 | 8 | 274 | 0.0 | 0.0 | 0.18 | 0.05 | 0.05 | 85 | 4264.1 |
| 20260506042812 | 8 | 290 | 0.0 | 0.0 | 0.13 | 0.03 | 0.03 | 85 | 4263.7 |
| 20260506042311 | 8 | 280 | 0.0 | 0.0 | 0.13 | 0.03 | 0.03 | 85 | 4264.1 |
| 20260506041809 | 8 | 272 | 0.0 | 0.0 | 0.00 | 0.00 | 0.00 | 85 | 4263.7 |
| 20260506041305 | 8 | 262 | 0.0 | 0.0 | 0.00 | 0.00 | 0.00 | 85 | 4264.1 |
| 20260506040803 | 8 | 240 | 0.0 | 0.0 | 0.00 | 0.00 | 0.00 | 85 | 4263.6 |
| 20260506040300 | 8 | 262 | 0.0 | 0.0 | 0.18 | 0.00 | 0.00 | 86 | 4263.7 |
| 20260506035756 | 8 | 275 | 0.0 | 0.0 | 0.18 | 1.50 | 1.50 | 86 | 4264.0 |
| 20260506035253 | 8 | 271 | 0.0 | 0.0 | 0.00 | 1.47 | 1.47 | 86 | 4264.0 |
| 20260506034750 | 8 | 270 | 0.0 | 0.0 | 0.00 | 1.47 | 1.47 | 86 | 4264.2 |
| 20260506034248 | 8 | 262 | 0.0 | 0.0 | 0.00 | 1.47 | 1.47 | 86 | 4264.1 |
| 20260506033744 | 8 | 272 | 0.0 | 0.0 | 0.00 | 1.47 | 1.47 | 86 | 4263.9 |
| 20260506033242 | 8 | 257 | 0.0 | 0.0 | 0.00 | 1.47 | 1.47 | 86 | 4263.9 |
| 20260506032738 | 8 | 280 | 0.0 | 0.0 | 0.00 | 1.47 | 1.47 | 86 | 4264.1 |
| 20260506032235 | 8 | 279 | 0.0 | 0.0 | 0.00 | 1.47 | 1.47 | 86 | 4263.9 |
| 20260506031726 | 8 | 285 | 0.0 | 0.0 | 0.00 | 1.47 | 1.47 | 86 | 4264.1 |
| 20260506031224 | 8 | 284 | 0.0 | 0.0 | 0.13 | 1.47 | 1.47 | 86 | 4264.2 |
| 20260506030722 | 8 | 265 | 0.0 | 0.0 | 0.13 | 1.47 | 1.47 | 86 | 4264.2 |
| 20260506030219 | 8 | 283 | 0.0 | 0.0 | 0.00 | 1.45 | 1.45 | 86 | 4264.1 |
| 20260506025716 | 8 | 291 | 0.0 | 0.0 | 0.00 | 1.45 | 1.45 | 86 | 4264.3 |
| 20260506025212 | 8 | 293 | 0.0 | 0.0 | 0.18 | 1.45 | 1.45 | 86 | 4264.2 |
| 20260506024709 | 8 | 292 | 0.0 | 0.0 | 0.18 | 1.45 | 1.45 | 86 | 4264.1 |
| 20260506024206 | 8 | 286 | 0.0 | 0.0 | 0.00 | 1.42 | 1.42 | 86 | 4264.4 |
| 20260506023702 | 8 | 280 | 0.0 | 0.0 | 0.13 | 1.42 | 1.42 | 86 | 4264.1 |
| 20260506023200 | 8 | 291 | 0.0 | 0.0 | 0.13 | 1.42 | 1.42 | 86 | 4264.2 |
| 20260506022656 | 8 | 293 | 0.0 | 0.0 | 0.00 | 1.40 | 1.40 | 86 | 4264.0 |
| 20260506022154 | 8 | 292 | 0.0 | 0.0 | 0.18 | 1.40 | 1.40 | 85 | 4264.0 |
| 20260506021652 | 8 | 283 | 0.0 | 0.0 | 0.18 | 1.40 | 1.40 | 85 | 4264.1 |
| 20260506021149 | 8 | 281 | 0.0 | 0.0 | 0.00 | 1.37 | 1.37 | 85 | 4264.1 |
| 20260506020646 | 8 | 276 | 0.0 | 0.0 | 0.13 | 1.37 | 1.37 | 85 | 4264.3 |
| 20260506020143 | 8 | 250 | 0.0 | 0.0 | 0.30 | 1.37 | 1.37 | 85 | 4264.1 |
| 20260506015640 | 8 | 260 | 0.0 | 0.0 | 0.18 | 1.35 | 1.35 | 85 | 4264.2 |
| 20260506015137 | 8 | 280 | 0.0 | 0.0 | 0.13 | 1.32 | 1.32 | 85 | 4264.1 |
| 20260506014635 | 8 | 229 | 0.0 | 0.0 | 0.13 | 1.32 | 1.32 | 85 | 4263.7 |
| 20260506014130 | 8 | 259 | 0.0 | 0.0 | 0.18 | 1.30 | 1.30 | 85 | 4264.1 |
| 20260506013629 | 8 | 259 | 0.0 | 0.0 | 0.36 | 1.30 | 1.30 | 85 | 4263.9 |
| 20260506013125 | 8 | 272 | 0.0 | 0.0 | 0.18 | 1.27 | 1.27 | 85 | 4263.9 |
| 20260506012622 | 8 | 270 | 0.0 | 0.0 | 0.30 | 1.27 | 1.27 | 85 | 4263.6 |
| 20260506012118 | 8 | 280 | 0.0 | 0.0 | 0.30 | 1.24 | 1.24 | 85 | 4263.5 |
| 20260506011616 | 8 | 280 | 4.8 | 4.8 | 0.18 | 1.22 | 1.22 | 85 | 4263.6 |
| 20260506011112 | 8 | 265 | 0.0 | 0.0 | 0.13 | 1.19 | 1.19 | 85 | 4263.6 |
| 20260506010612 | 8 | 281 | 0.0 | 0.0 | 0.13 | 1.19 | 1.19 | 85 | 4263.7 |
| 20260506010108 | 8 | 262 | 0.0 | 0.0 | 0.00 | 1.17 | 1.17 | 85 | 4263.6 |
| 20260506005605 | 8 | 264 | 0.0 | 0.0 | 0.18 | 1.17 | 1.17 | 85 | 4263.4 |
| 20260506005101 | 8 | 274 | 0.0 | 0.0 | 0.18 | 1.17 | 1.17 | 85 | 4263.4 |
| 20260506004558 | 8 | 244 | 0.0 | 0.0 | 0.00 | 1.14 | 1.14 | 85 | 4263.5 |
| 20260506004055 | 8 | 267 | 0.0 | 0.0 | 0.13 | 1.14 | 1.14 | 85 | 4263.5 |
| 20260506003551 | 8 | 281 | 0.0 | 0.0 | 0.13 | 1.14 | 1.14 | 85 | 4263.2 |
| 20260506003048 | 8 | 273 | 0.0 | 0.0 | 0.00 | 1.12 | 1.12 | 84 | 4263.3 |
| 20260506002543 | 8 | 283 | 0.0 | 0.0 | 0.18 | 1.12 | 1.12 | 84 | 4263.3 |
| 20260506002040 | 8 | 279 | 0.0 | 0.0 | 0.30 | 1.12 | 1.12 | 84 | 4263.4 |
| 20260506001536 | 8 | 284 | 0.0 | 0.0 | 0.30 | 1.09 | 1.09 | 84 | 4263.2 |
| 20260506001033 | 8 | 288 | 0.0 | 0.0 | 0.30 | 1.07 | 1.07 | 84 | 4263.4 |
| 20260506000531 | 8 | 283 | 0.0 | 0.0 | 0.48 | 1.04 | 1.04 | 84 | 4263.3 |
| 20260506000028 | 8 | 289 | 0.0 | 0.0 | 0.48 | 1.02 | 1.02 | 84 | 4263.4 |
| 20260505235526 | 8 | 285 | 0.0 | 0.0 | 0.30 | 0.97 | 0.97 | 84 | 4263.5 |
| 20260505235022 | 8 | 277 | 0.0 | 0.0 | 0.30 | 0.94 | 0.94 | 84 | 4263.3 |
| 20260505234520 | 8 | 275 | 0.0 | 1.6 | 0.43 | 0.91 | 0.91 | 83 | 4263.3 |
| 20260505234016 | 9 | 289 | 0.0 | 0.0 | 0.48 | 0.89 | 0.89 | 83 | 4263.2 |
| 20260505233514 | 9 | 252 | 0.0 | 0.0 | 0.18 | 0.84 | 0.84 | 83 | 4263.2 |
| 20260505233011 | 9 | 278 | 0.0 | 0.0 | 0.13 | 0.81 | 0.81 | 83 | 4263.4 |
| 20260505232509 | 9 | 280 | 0.0 | 0.0 | 0.30 | 0.81 | 0.81 | 83 | 4263.2 |
| 20260505232006 | 9 | 279 | 0.0 | 0.0 | 0.18 | 0.79 | 0.79 | 83 | 4263.3 |
| 20260505231503 | 9 | 263 | 0.0 | 0.0 | 0.30 | 0.79 | 0.79 | 83 | 4263.4 |
| 20260505231002 | 9 | 283 | 0.0 | 0.0 | 0.13 | 0.76 | 0.76 | 82 | 4263.3 |
| 20260505230459 | 9 | 284 | 0.0 | 0.0 | 0.00 | 0.74 | 0.74 | 82 | 4263.2 |
| 20260505225955 | 9 | 292 | 0.0 | 0.0 | 0.00 | 0.74 | 0.74 | 82 | 4263.2 |
| 20260505225452 | 9 | 297 | 0.0 | 0.0 | 0.00 | 0.74 | 0.74 | 82 | 4263.0 |
| 20260505224948 | 9 | 289 | 0.0 | 0.0 | 0.00 | 0.74 | 0.74 | 82 | 4263.2 |
| 20260505224445 | 9 | 313 | 0.0 | 0.0 | 0.00 | 0.74 | 0.74 | 82 | 4263.0 |
| 20260505223942 | 9 | 314 | 0.0 | 0.0 | 0.00 | 0.74 | 0.74 | 82 | 4262.8 |
| 20260505223439 | 9 | 317 | 0.0 | 1.6 | 0.00 | 0.74 | 0.74 | 82 | 4262.9 |
| 20260505222935 | 10 | 322 | 0.0 | 0.0 | 0.00 | 0.74 | 0.74 | 82 | 4263.1 |
| 20260505222432 | 10 | 324 | 0.0 | 0.0 | 0.00 | 0.74 | 0.74 | 83 | 4263.1 |
| 20260505221928 | 10 | 320 | 6.4 | 8.0 | 0.00 | 0.74 | 0.74 | 83 | 4263.0 |
| 20260505221425 | 9 | 322 | 0.0 | 0.0 | 0.00 | 0.74 | 0.74 | 83 | 4263.2 |
| 20260505220922 | 9 | 337 | 0.0 | 0.0 | 0.00 | 0.74 | 0.74 | 83 | 4262.9 |
| 20260505220419 | 9 | 325 | 1.6 | 3.2 | 0.18 | 0.74 | 0.74 | 83 | 4263.2 |
| 20260505215917 | 9 | 318 | 0.0 | 0.0 | 0.18 | 0.74 | 0.74 | 83 | 4262.9 |
| 20260505215415 | 10 | 325 | 8.0 | 9.7 | 0.00 | 0.71 | 0.71 | 83 | 4263.0 |
| 20260505214912 | 10 | 322 | 11.3 | 12.9 | 0.13 | 0.71 | 0.71 | 83 | 4262.8 |
| 20260505214410 | 9 | 335 | 9.7 | 12.9 | 0.30 | 0.71 | 0.71 | 83 | 4262.7 |
| 20260505213907 | 9 | 305 | 0.0 | 0.0 | 0.36 | 0.69 | 0.69 | 83 | 4263.1 |
| 20260505213405 | 10 | 317 | 0.0 | 0.0 | 0.18 | 0.66 | 0.66 | 83 | 4262.8 |
| 20260505212900 | 10 | 331 | 8.0 | 9.7 | 0.13 | 0.64 | 0.64 | 83 | 4262.9 |
| 20260505212358 | 9 | 326 | 12.9 | 14.5 | 0.13 | 0.64 | 0.64 | 83 | 4262.7 |
| 20260505211854 | 10 | 334 | 11.3 | 12.9 | 0.18 | 0.61 | 0.61 | 83 | 4262.8 |
| 20260505211351 | 10 | 331 | 14.5 | 14.5 | 0.18 | 0.61 | 0.61 | 83 | 4262.7 |
| 20260505210848 | 9 | 320 | 14.5 | 14.5 | 0.18 | 0.61 | 0.61 | 83 | 4262.8 |
| 20260505210345 | 10 | 329 | 16.1 | 16.1 | 0.13 | 0.58 | 0.58 | 83 | 4262.8 |
| 20260505205841 | 10 | 330 | 16.1 | 17.7 | 0.18 | 0.56 | 0.56 | 83 | 4263.0 |
| 20260505205340 | 10 | 336 | 11.3 | 12.9 | 0.18 | 0.56 | 0.56 | 83 | 4262.8 |
| 20260505204836 | 10 | 328 | 11.3 | 12.9 | 0.13 | 0.53 | 0.53 | 83 | 4262.8 |
| 20260505204334 | 10 | 319 | 11.3 | 12.9 | 0.30 | 0.53 | 0.53 | 83 | 4262.8 |
| 20260505203831 | 10 | 331 | 14.5 | 14.5 | 0.30 | 0.51 | 0.51 | 83 | 4262.7 |
| 20260505203328 | 10 | 327 | 24.1 | 32.2 | 0.30 | 0.48 | 0.48 | 82 | 4262.8 |
| 20260505202824 | 10 | 337 | 12.9 | 14.5 | 0.18 | 0.46 | 0.46 | 82 | 4262.7 |
| 20260505202320 | 10 | 331 | 9.7 | 12.9 | 0.30 | 0.46 | 0.46 | 82 | 4262.6 |
| 20260505201817 | 10 | 315 | 16.1 | 17.7 | 0.13 | 0.43 | 0.43 | 82 | 4262.8 |
| 20260505201315 | 10 | 324 | 8.0 | 9.7 | 0.18 | 0.41 | 0.41 | 82 | 4262.8 |
| 20260505200813 | 10 | 325 | 14.5 | 16.1 | 0.18 | 0.41 | 0.41 | 82 | 4262.8 |
| 20260505200309 | 11 | 331 | 11.3 | 12.9 | 0.13 | 0.38 | 0.38 | 82 | 4262.9 |
| 20260505195805 | 10 | 311 | 8.0 | 9.7 | 0.13 | 0.38 | 0.38 | 82 | 4263.2 |
| 20260505195305 | 11 | 285 | 11.3 | 14.5 | 0.00 | 0.36 | 0.36 | 82 | 4263.0 |
| 20260505194800 | 11 | 290 | 6.4 | 8.0 | 0.00 | 0.36 | 0.36 | 83 | 4262.8 |
| 20260505194257 | 11 | 264 | 4.8 | 8.0 | 0.00 | 0.36 | 0.36 | 82 | 4263.0 |
| 20260505193756 | 11 | 249 | 11.3 | 14.5 | 0.18 | 0.36 | 0.36 | 82 | 4263.2 |
| 20260505193255 | 11 | 265 | 6.4 | 8.0 | 0.18 | 0.36 | 0.36 | 83 | 4263.4 |
| 20260505192753 | 11 | 254 | 8.0 | 9.7 | 0.00 | 0.33 | 0.33 | 83 | 4263.2 |
| 20260505192250 | 11 | 230 | 8.0 | 9.7 | 0.00 | 0.33 | 0.33 | 83 | 4263.2 |
| 20260505191748 | 11 | 238 | 6.4 | 9.7 | 0.18 | 0.33 | 0.33 | 83 | 4263.4 |
| 20260505191247 | 10 | 254 | 8.0 | 11.3 | 0.18 | 0.33 | 0.33 | 82 | 4263.1 |
| 20260505190742 | 10 | 242 | 11.3 | 12.9 | 0.13 | 0.30 | 0.30 | 82 | 4263.4 |
| 20260505190237 | 10 | 231 | 1.6 | 8.0 | 0.13 | 0.30 | 0.30 | 82 | 4263.4 |
| 20260505185734 | 10 | 247 | 6.4 | 9.7 | 0.00 | 0.28 | 0.28 | 82 | 4263.5 |
| 20260505185231 | 11 | 231 | 12.9 | 14.5 | 0.18 | 0.28 | 0.28 | 82 | 4263.5 |
| 20260505184727 | 11 | 272 | 9.7 | 11.3 | 0.18 | 0.28 | 0.28 | 83 | 4263.5 |
| 20260505184225 | 11 | 253 | 0.0 | 3.2 | 0.13 | 0.25 | 0.25 | 83 | 4263.4 |
| 20260505183721 | 11 | 296 | 4.8 | 8.0 | 0.30 | 0.25 | 0.25 | 82 | 4262.7 |
| 20260505183219 | 11 | 255 | 9.7 | 11.3 | 0.30 | 0.23 | 0.23 | 82 | 4263.2 |
| 20260505182714 | 11 | 252 | 4.8 | 4.8 | 0.30 | 0.20 | 0.20 | 82 | 4262.9 |
| 20260505182212 | 11 | 242 | 4.8 | 4.8 | 0.30 | 0.18 | 0.18 | 81 | 4263.2 |
| 20260505181708 | 11 | 251 | 9.7 | 11.3 | 0.30 | 0.15 | 0.15 | 80 | 4263.0 |
| 20260505181206 | 11 | 230 | 6.4 | 11.3 | 0.18 | 0.13 | 0.13 | 80 | 4262.9 |
| 20260505180702 | 11 | 247 | 9.7 | 11.3 | 0.13 | 0.10 | 0.10 | 80 | 4262.9 |
| 20260505180159 | 11 | 277 | 4.8 | 8.0 | 0.30 | 0.10 | 0.10 | 79 | 4262.7 |
| 20260505175655 | 12 | 260 | 4.8 | 4.8 | 0.18 | 0.08 | 0.08 | 78 | 4262.7 |
| 20260505175151 | 12 | 258 | 3.2 | 3.2 | 0.00 | 0.05 | 0.05 | 77 | 4262.8 |
| 20260505174648 | 12 | 263 | 6.4 | 8.0 | 0.13 | 0.05 | 0.05 | 76 | 4262.5 |
| 20260505174144 | 12 | 244 | 4.8 | 8.0 | 0.13 | 0.05 | 0.05 | 75 | 4262.5 |
| 20260505173641 | 12 | 266 | 4.8 | 8.0 | 0.00 | 0.03 | 0.03 | 75 | 4262.3 |
| 20260505173138 | 12 | 230 | 12.9 | 14.5 | 0.00 | 0.03 | 0.03 | 72 | 4262.6 |
| 20260505172635 | 13 | 264 | 6.4 | 8.0 | 0.18 | 0.03 | 0.03 | 75 | 4262.7 |
| 20260505172132 | 13 | 274 | 4.8 | 4.8 | 0.18 | 0.03 | 0.03 | 74 | 4262.5 |
| 20260505171626 | 13 | 275 | 4.8 | 4.8 | 0.00 | 0.00 | 0.00 | 71 | 4262.5 |
| 20260505171124 | 13 | 259 | 4.8 | 8.0 | 0.00 | 0.00 | 0.00 | 70 | 4262.5 |
| 20260505170621 | 13 | 256 | 6.4 | 8.0 | 0.00 | 0.00 | 0.00 | 68 | 4262.6 |
| 20260505170117 | 14 | 269 | 11.3 | 12.9 | 0.00 | 0.00 | 0.00 | 67 | 4262.9 |
| 20260505165612 | 14 | 293 | 11.3 | 14.5 | 0.00 | 0.00 | 0.00 | 66 | 4262.7 |
| 20260505165108 | 14 | 300 | 12.9 | 16.1 | 0.00 | 0.00 | 0.00 | 65 | 4263.0 |
| 20260505164604 | 14 | 287 | 11.3 | 12.9 | 0.00 | 0.00 | 0.00 | 68 | 4262.7 |
| 20260505164102 | 14 | 263 | 9.7 | 11.3 | 0.00 | 0.00 | 0.00 | 69 | 4262.7 |
| 20260505163600 | 15 | 295 | 14.5 | 16.1 | 0.00 | 0.00 | 0.00 | 70 | 4262.6 |
| 20260505163057 | 15 | 275 | 11.3 | 16.1 | 0.00 | 0.00 | 0.00 | 72 | 4262.7 |
| 20260505162555 | 15 | 286 | 14.5 | 20.9 | 0.00 | 0.00 | 0.00 | 72 | 4262.7 |
| 20260505162053 | 15 | 281 | 16.1 | 17.7 | 0.00 | 0.00 | 0.00 | 71 | 4262.8 |
| 20260505161549 | 15 | 301 | 19.3 | 22.5 | 0.00 | 0.00 | 0.00 | 71 | 4262.5 |
| 20260505161047 | 15 | 262 | 14.5 | 20.9 | 0.00 | 0.00 | 0.00 | 71 | 4262.5 |
| 20260505160544 | 15 | 272 | 19.3 | 22.5 | 0.00 | 0.00 | 0.00 | 72 | 4262.6 |
| 20260505153021 | 15 | 265 | 11.3 | 11.3 | 0.00 | 0.00 | 0.00 | 74 | 4262.5 |
| 20260505152518 | 15 | 244 | 17.7 | 20.9 | 0.00 | 0.00 | 0.00 | 73 | 4262.4 |
| 20260505152013 | 16 | 238 | 17.7 | 24.1 | 0.00 | 0.00 | 0.00 | 73 | 4262.5 |
| 20260505151514 | 16 | 238 | 12.9 | 16.1 | 0.00 | 0.00 | 0.00 | 72 | 4262.2 |
| 20260505151011 | 16 | 231 | 16.1 | 22.5 | 0.00 | 0.00 | 0.00 | 72 | 4262.2 |
| 20260505150508 | 16 | 254 | 16.1 | 17.7 | 0.00 | 0.00 | 0.00 | 72 | 4262.3 |
| 20260505140433 | 16 | 221 | 22.5 | 24.1 | 0.00 | 0.00 | 0.00 | 71 | 4260.1 |
| 20260505124846 | 15 | 248 | 22.5 | 27.4 | 0.00 | 0.00 | 0.00 | 73 | 4260.1 |
| 20260505124343 | 15 | 221 | 19.3 | 25.7 | 0.00 | 0.00 | 0.00 | 73 | 4260.2 |
| 20260505123839 | 15 | 217 | 22.5 | 25.7 | 0.00 | 0.00 | 0.00 | 73 | 4260.4 |
| 20260505123336 | 15 | 207 | 24.1 | 32.2 | 0.00 | 0.00 | 0.00 | 73 | 4260.6 |
| 20260505122832 | 15 | 257 | 14.5 | 16.1 | 0.00 | 0.00 | 0.00 | 75 | 4260.4 |
| 20260505122330 | 15 | 224 | 19.3 | 29.0 | 0.00 | 0.00 | 0.00 | 76 | 4260.3 |
| 20260505121826 | 15 | 223 | 20.9 | 29.0 | 0.00 | 0.00 | 0.00 | 76 | 4260.0 |
| 20260505121324 | 15 | 294 | 17.7 | 22.5 | 0.00 | 0.00 | 0.00 | 76 | 4260.3 |
| 20260505120819 | 15 | 222 | 9.7 | 11.3 | 0.00 | 0.00 | 0.00 | 76 | 4260.1 |
| 20260505120316 | 14 | 252 | 14.5 | 14.5 | 0.00 | 0.00 | 0.00 | 77 | 4260.3 |
| 20260505115814 | 14 | 228 | 17.7 | 20.9 | 0.00 | 0.00 | 0.00 | 76 | 4260.1 |
| 20260505115312 | 14 | 219 | 20.9 | 24.1 | 0.00 | 0.00 | 0.00 | 77 | 4260.1 |
| 20260505114809 | 14 | 231 | 17.7 | 22.5 | 0.00 | 0.00 | 0.00 | 77 | 4260.4 |
| 20260505114306 | 14 | 214 | 16.1 | 22.5 | 0.00 | 0.00 | 0.00 | 77 | 4259.9 |
| 20260505113802 | 14 | 291 | 12.9 | 17.7 | 0.00 | 0.00 | 0.00 | 76 | 4259.9 |
| 20260505113258 | 14 | 241 | 17.7 | 20.9 | 0.00 | 0.00 | 0.00 | 76 | 4259.6 |
| 20260505112754 | 14 | 225 | 11.3 | 12.9 | 0.00 | 0.00 | 0.00 | 76 | 4259.6 |
| 20260505112253 | 14 | 256 | 8.0 | 11.3 | 0.00 | 0.00 | 0.00 | 77 | 4259.4 |
| 20260505111753 | 14 | 225 | 11.3 | 16.1 | 0.00 | 0.00 | 0.00 | 77 | 4259.1 |
| 20260505111249 | 14 | 232 | 14.5 | 17.7 | 0.00 | 0.00 | 0.00 | 77 | 4258.9 |
| 20260505110745 | 14 | 236 | 11.3 | 12.9 | 0.00 | 0.00 | 0.00 | 76 | 4258.8 |
| 20260505110243 | 14 | 226 | 11.3 | 14.5 | 0.00 | 0.00 | 0.00 | 77 | 4258.6 |
| 20260505102218 | 14 | 251 | 11.3 | 14.5 | 0.00 | 0.00 | 0.00 | 77 | 4258.1 |
| 20260505101717 | 15 | 221 | 14.5 | 17.7 | 0.00 | 0.00 | 0.00 | 76 | 4258.0 |
| 20260505101212 | 15 | 238 | 12.9 | 14.5 | 0.00 | 0.00 | 0.00 | 75 | 4257.9 |
| 20260505100709 | 15 | 213 | 12.9 | 14.5 | 0.00 | 0.00 | 0.00 | 75 | 4258.3 |
| 20260505100206 | 15 | 208 | 11.3 | 12.9 | 0.00 | 0.00 | 0.00 | 74 | 4258.1 |
| 20260505095701 | 15 | 209 | 16.1 | 22.5 | 0.00 | 0.00 | 0.00 | 74 | 4257.9 |
| 20260505095200 | 15 | 232 | 19.3 | 24.1 | 0.00 | 0.00 | 0.00 | 75 | 4258.0 |
| 20260505094655 | 15 | 185 | 12.9 | 22.5 | 0.00 | 0.00 | 0.00 | 75 | 4258.1 |
| 20260505094151 | 15 | 237 | 19.3 | 24.1 | 0.00 | 0.00 | 0.00 | 74 | 4258.2 |
| 20260505093648 | 15 | 211 | 17.7 | 22.5 | 0.00 | 0.00 | 0.00 | 74 | 4258.0 |
| 20260505093145 | 15 | 229 | 17.7 | 20.9 | 0.00 | 0.00 | 0.00 | 75 | 4258.3 |
| 20260505092642 | 15 | 219 | 12.9 | 14.5 | 0.00 | 0.00 | 0.00 | 75 | 4257.9 |
| 20260505092141 | 15 | 249 | 20.9 | 24.1 | 0.00 | 0.00 | 0.00 | 75 | 4258.0 |
| 20260505091638 | 15 | 214 | 14.5 | 20.9 | 0.00 | 0.00 | 0.00 | 75 | 4257.9 |
| 20260505091135 | 14 | 236 | 9.7 | 12.9 | 0.00 | 0.00 | 0.00 | 76 | 4258.0 |
| 20260505090633 | 15 | 239 | 8.0 | 11.3 | 0.00 | 0.00 | 0.00 | 76 | 4257.8 |
| 20260505090131 | 15 | 211 | 8.0 | 11.3 | 0.00 | 0.00 | 0.00 | 75 | 4257.9 |
| 20260505085628 | 15 | 214 | 11.3 | 16.1 | 0.00 | 0.00 | 0.00 | 75 | 4257.8 |
| 20260505085126 | 15 | 207 | 11.3 | 14.5 | 0.00 | 0.00 | 0.00 | 73 | 4258.0 |
| 20260505084624 | 15 | 217 | 14.5 | 17.7 | 0.00 | 0.00 | 0.00 | 74 | 4258.1 |
| 20260505084122 | 15 | 256 | 12.9 | 16.1 | 0.00 | 0.00 | 0.00 | 73 | 4257.7 |
| 20260505083619 | 15 | 222 | 12.9 | 14.5 | 0.00 | 0.00 | 0.00 | 73 | 4257.7 |
| 20260505083115 | 15 | 199 | 17.7 | 24.1 | 0.00 | 0.00 | 0.00 | 73 | 4257.4 |
| 20260505082611 | 15 | 278 | 16.1 | 17.7 | 0.00 | 0.00 | 0.00 | 74 | 4257.6 |
| 20260505082109 | 15 | 221 | 19.3 | 24.1 | 0.00 | 0.00 | 0.00 | 73 | 4257.8 |
| 20260505081605 | 16 | 217 | 19.3 | 22.5 | 0.00 | 0.00 | 0.00 | 72 | 4257.4 |
| 20260505081102 | 16 | 219 | 24.1 | 27.4 | 0.00 | 0.00 | 0.00 | 72 | 4257.3 |
| 20260505080558 | 16 | 247 | 27.4 | 33.8 | 0.00 | 0.00 | 0.00 | 71 | 4257.5 |
| 20260505080055 | 16 | 238 | 25.7 | 32.2 | 0.00 | 0.00 | 0.00 | 70 | 4257.5 |
| 20260505075550 | 16 | 251 | 24.1 | 25.7 | 0.00 | 0.00 | 0.00 | 67 | 4257.4 |
| 20260505075048 | 17 | 224 | 14.5 | 17.7 | 0.00 | 0.00 | 0.00 | 67 | 4257.4 |
| 20260505074544 | 17 | 206 | 17.7 | 20.9 | 0.00 | 0.00 | 0.00 | 65 | 4257.4 |
| 20260505074042 | 17 | 224 | 22.5 | 25.7 | 0.00 | 0.00 | 0.00 | 64 | 4257.3 |
| 20260505073539 | 17 | 229 | 22.5 | 29.0 | 0.00 | 0.00 | 0.00 | 64 | 4257.3 |
| 20260505073038 | 17 | 232 | 9.7 | 11.3 | 0.00 | 0.00 | 0.00 | 68 | 4256.9 |
| 20260505072533 | 16 | 202 | 12.9 | 14.5 | 0.00 | 0.00 | 0.00 | 68 | 4257.0 |
| 20260505072030 | 16 | 206 | 9.7 | 11.3 | 0.00 | 0.00 | 0.00 | 67 | 4256.9 |
| 20260505071525 | 16 | 225 | 8.0 | 9.7 | 0.00 | 0.00 | 0.00 | 69 | 4256.7 |
| 20260505071023 | 16 | 207 | 11.3 | 14.5 | 0.00 | 0.00 | 0.00 | 68 | 4256.8 |
| 20260505070520 | 16 | 247 | 8.0 | 9.7 | 0.00 | 0.00 | 0.00 | 69 | 4256.9 |
| 20260505070016 | 16 | 208 | 6.4 | 9.7 | 0.00 | 0.00 | 0.00 | 68 | 4256.8 |
| 20260505065512 | 16 | 228 | 9.7 | 12.9 | 0.00 | 0.00 | 0.00 | 68 | 4256.9 |
| 20260505065009 | 17 | 227 | 4.8 | 9.7 | 0.00 | 0.00 | 0.00 | 67 | 4257.0 |
| 20260505064506 | 17 | 241 | 9.7 | 11.3 | 0.00 | 0.00 | 0.00 | 65 | 4256.8 |
| 20260505064005 | 17 | 231 | 14.5 | 17.7 | 0.00 | 0.00 | 0.00 | 65 | 4257.6 |
| 20260505063501 | 17 | 238 | 14.5 | 16.1 | 0.00 | 0.00 | 0.00 | 64 | 4257.6 |
| 20260505062957 | 17 | 260 | 12.9 | 16.1 | 0.00 | 0.00 | 0.00 | 65 | 4257.7 |
| 20260505062454 | 17 | 252 | 9.7 | 12.9 | 0.00 | 0.00 | 0.00 | 65 | 4257.7 |
| 20260505061951 | 17 | 259 | 6.4 | 8.0 | 0.00 | 0.00 | 0.00 | 65 | 4257.4 |
| 20260505061449 | 17 | 285 | 3.2 | 4.8 | 0.00 | 0.00 | 0.00 | 66 | 4257.6 |
| 20260505060946 | 17 | 231 | 9.7 | 12.9 | 0.00 | 0.00 | 0.00 | 64 | 4257.6 |
| 20260505060443 | 17 | 239 | 4.8 | 4.8 | 0.00 | 0.00 | 0.00 | 64 | 4257.6 |